Location: Elstree
(51.6403°N, 0.2969°W)
Time: 07:02:15
(UTC+00:00)

Cosmos 2360 Rocket - Visible Passes

Search period start: 21 June 2021 00:00
Search period end: 01 July 2021 00:00
Orbit: 835 x 844 km, 71.0° (Epoch: 20 June)

Date Brightness Start Highest point End Pass type
(mag) Time Alt. Az. Time Alt. Az. Time Alt. Az.
21 Jun 5.2 00:15:02 10° NW 00:17:44 13° NNW 00:20:27 10° N visible
21 Jun 5.6 02:03:14 10° N 02:04:31 11° N 02:05:47 10° NNE visible
21 Jun 3.9 22:10:57 10° WSW 22:16:08 36° NW 22:21:20 10° NNE visible
21 Jun 5.2 23:59:06 10° NW 00:01:54 14° NNW 00:04:43 10° N visible
22 Jun 5.6 01:47:29 10° N 01:48:39 11° N 01:49:50 10° NNE visible
22 Jun 3.8 21:55:07 10° WSW 22:00:20 38° NW 22:05:35 10° NNE visible
22 Jun 5.2 23:43:09 10° NW 23:46:04 14° NNW 23:48:59 10° N visible
23 Jun 5.7 01:31:43 10° N 01:32:48 10° N 01:33:53 10° NNE visible
23 Jun 3.8 21:39:16 10° WSW 21:44:33 39° NW 21:49:51 10° NNE visible
23 Jun 5.2 23:27:13 10° NW 23:30:13 14° NNW 23:33:15 10° N visible
24 Jun 5.8 01:15:58 10° N 01:16:57 10° N 01:17:57 10° NNE visible
24 Jun 3.7 21:23:27 10° WSW 21:28:46 41° NW 21:34:06 10° NNE visible
24 Jun 5.3 23:11:16 10° WNW 23:14:23 15° NNW 23:17:30 10° N visible
25 Jun 5.8 01:00:11 10° N 01:01:06 10° N 01:02:00 10° NNE visible
25 Jun 5.3 02:43:41 10° NNW 02:47:36 19° NNE 02:51:30 10° ENE visible
25 Jun 3.7 21:07:37 10° WSW 21:12:59 43° NW 21:18:21 10° NNE visible
25 Jun 5.3 22:55:20 10° WNW 22:58:33 15° NNW 23:01:47 10° N visible
26 Jun 5.9 00:44:24 10° N 00:45:14 10° N 00:46:05 10° NNE visible
26 Jun 5.3 02:27:57 10° NNW 02:31:46 18° NNE 02:35:35 10° ENE visible
26 Jun 5.4 22:39:24 10° WNW 22:42:43 16° NNW 22:46:02 10° N visible
27 Jun 5.9 00:28:36 10° N 00:29:24 10° N 00:30:11 10° N visible
27 Jun 5.4 02:12:13 10° NNW 02:15:57 18° NNE 02:19:40 10° ENE visible
27 Jun 5.4 22:23:29 10° WNW 22:26:53 16° NNW 22:30:18 10° N visible
28 Jun 6.0 00:12:47 10° N 00:13:32 10° N 00:14:17 10° N visible
28 Jun 5.4 01:56:29 10° NNW 02:00:07 17° NNE 02:03:45 10° ENE visible
28 Jun 5.4 22:07:33 10° WNW 22:11:03 16° NNW 22:14:34 10° NNE visible
28 Jun 6.0 23:56:56 10° N 23:57:40 10° N 23:58:25 10° N visible
29 Jun 5.3 01:40:45 10° NNW 01:44:17 17° NNE 01:47:49 10° ENE visible
29 Jun 5.4 21:51:38 10° WNW 21:55:14 17° NNW 21:58:50 10° NNE visible
29 Jun 5.9 23:41:05 10° N 23:41:50 10° N 23:42:35 10° N visible
30 Jun 5.3 01:25:01 10° N 01:28:28 16° NNE 01:31:54 10° ENE visible
30 Jun 5.3 21:35:42 10° WNW 21:39:24 17° NNW 21:43:06 10° NNE visible
30 Jun 5.8 23:25:11 10° N 23:25:58 10° N 23:26:44 10° N visible
